Back to catalog

COSMOS 1579 COOLANT

AliveLEO
NORAD 26517·DEBRIS·🇷🇺 Russia

Launched Jun 29, 1984 from Baikonur Cosmodrome

Loading…

Next Passes (next 24 hours)

TLE

StaleSource: Space-Track

Epoch: Sep 4, 2026, 05:39 UTC

1 26517U 84069J   26247.23606411  .00000005  00000-0  74294-4 0  9997
2 26517  65.0498  56.1010 0052041 323.4298 212.1018 13.91246586666346

Track COSMOS 1579 COOLANT in real time with AllMySat

Download on the App Store